QPF
0.10 0.09 0.12 0.13 0.14 0.15 0.13 0.12 0.11 0.09 0.08 0.06 0.06 0.07 0.07 0.05 0.05 0.04 0.03 0.03 0.03 0.03 0.03 0.02 0.01 0.02 0.01 0.01 0.01 0.01 0.02 0.02 0.02 0.02 0.02 0.03 0.03 0.03 0.03 0.04 0.04 0.03 0.03
0.08 0.09 0.12 0.13 0.11 0.11 0.10 0.11 0.09 0.08 0.08 0.08 0.08 0.07 0.07 0.07 0.06 0.04 0.04 0.04 0.04 0.02 0.02 0.02 0.02 0.01 0.01 0.02 0.02 0.02 0.03 0.04 0.03 0.02 0.03 0.02 0.03 0.04 0.04 0.05 0.06 0.04 0.03
0.11 0.15 0.13 0.12 0.10 0.09 0.10 0.10 0.08 0.08 0.07 0.07 0.08 0.08 0.07 0.07 0.05 0.05 0.04 0.04 0.03 0.02 0.02 0.02 0.01 0.01 0.03 0.03 0.02 0.02 0.03 0.02 0.02 0.03 0.04 0.04 0.02 0.02 0.02 0.03 0.03 0.02 0.01
0.10 0.21 0.15 0.10 0.08 0.09 0.10 0.09 0.08 0.08 0.07 0.07 0.05 0.06 0.07 0.05 0.05 0.04 0.03 0.03 0.03 0.02 0.02 0.01 0.01 0.02 0.03 0.03 0.03 0.02 0.02 0.02 0.02 0.04 0.07 0.05 0.02 0.01 0.01 0.01 0.01 0.01 0.02
0.08 0.14 0.15 0.14 0.11 0.12 0.11 0.09 0.09 0.08 0.07 0.06 0.06 0.06 0.06 0.05 0.04 0.03 0.02 0.02 0.03 0.02 0.03 0.02 0.02 0.02 0.03 0.04 0.04 0.02 0.01 0.02 0.02 0.05 0.05 0.04 0.03 0.02 0.01 0.01 0.02 0.02 0.02
0.03 0.06 0.12 0.19 0.16 0.15 0.11 0.09 0.08 0.07 0.08 0.07 0.07 0.06 0.06 0.05 0.03 0.03 0.03 0.02 0.02 0.03 0.03 0.03 0.03 0.02 0.03 0.03 0.03 0.02 0.01 0.01 0.02 0.04 0.03 0.04 0.04 0.02 0.02 0.02 0.02 0.02 0.03
0.03 0.03 0.07 0.18 0.19 0.17 0.12 0.09 0.08 0.08 0.09 0.09 0.08 0.05 0.06 0.05 0.03 0.03 0.03 0.03 0.02 0.02 0.02 0.01 0.02 0.03 0.02 0.02 0.04 0.04 0.02 0.01 0.03 0.05 0.04 0.03 0.02 0.01 0.01 0.02 0.03 0.03 0.03
0.02 0.03 0.06 0.13 0.13 0.13 0.12 0.09 0.07 0.06 0.08 0.08 0.08 0.04 0.04 0.03 0.02 0.02 0.03 0.04 0.04 0.02 0.01 0.01 0.02 0.03 0.03 0.02 0.03 0.04 0.03 0.02 0.02 0.04 0.03 0.02 0.02 0.01 0.02 0.02 0.02 0.02 0.02
0.03 0.02 0.03 0.06 0.07 0.08 0.08 0.07 0.06 0.05 0.06 0.07 0.07 0.05 0.04 0.03 0.02 0.03 0.04 0.03 0.03 0.02 0.02 0.02 0.02 0.03 0.03 0.02 0.02 0.04 0.04 0.02 0.02 0.03 0.02 0.04 0.03 0.02 0.02 0.01 0.01 0.02 0.03
0.04 0.03 0.02 0.05 0.08 0.07 0.05 0.06 0.06 0.05 0.06 0.06 0.06 0.05 0.04 0.05 0.04 0.03 0.03 0.03 0.02 0.03 0.01 0.01 0.02 0.03 0.03 0.02 0.02 0.03 0.05 0.04 0.01 0.02 0.06 0.09 0.03 0.01 0.01 0.01 0.01 0.02 0.02
0.03 0.04 0.03 0.03 0.05 0.04 0.04 0.05 0.06 0.05 0.05 0.06 0.07 0.07 0.05 0.06 0.07 0.06 0.03 0.02 0.03 0.03 0.02 0.02 0.02 0.03 0.02 0.02 0.03 0.04 0.04 0.04 0.03 0.03 0.07 0.06 0.02 0.01 0.01 0.03 0.04 0.04 0.02
0.01 0.02 0.02 0.01 0.02 0.03 0.05 0.05 0.07 0.07 0.06 0.07 0.10 0.11 0.10 0.09 0.08 0.06 0.04 0.02 0.01 0.01 0.02 0.03 0.03 0.02 0.02 0.03 0.04 0.03 0.03 0.05 0.09 0.03 0.03 0.01 0.01 0.01 0.01 0.02 0.03 0.04 0.03
0.01 0.02 0.01 0.01 0.02 0.05 0.07 0.05 0.07 0.08 0.06 0.06 0.09 0.10 0.10 0.08 0.07 0.06 0.07 0.06 0.04 0.03 0.05 0.06 0.05 0.04 0.03 0.04 0.04 0.03 0.03 0.02 0.03 0.03 0.01 0.01 0.00 0.00 0.00 0.01 0.02 0.03 0.03
0.01 0.01 0.01 0.01 0.03 0.06 0.06 0.06 0.06 0.05 0.04 0.04 0.05 0.06 0.07 0.07 0.07 0.07 0.09 0.08 0.07 0.08 0.09 0.10 0.10 0.08 0.05 0.04 0.02 0.01 0.01 0.01 0.02 0.04 0.02 0.01 0.00 0.00 0.00 0.01 0.01 0.02 0.03
0.00 0.00 0.01 0.01 0.02 0.05 0.07 0.06 0.04 0.04 0.03 0.02 0.02 0.05 0.06 0.06 0.07 0.08 0.08 0.09 0.08 0.07 0.08 0.10 0.10 0.10 0.07 0.05 0.02 0.01 0.01 0.01 0.01 0.01 0.02 0.01 0.00 0.00 0.01 0.01 0.01 0.01 0.02
0.00 0.00 0.00 0.00 0.01 0.02 0.04 0.05 0.04 0.03 0.03 0.03 0.02 0.03 0.04 0.07 0.08 0.08 0.08 0.07 0.08 0.08 0.08 0.10 0.09 0.10 0.07 0.06 0.04 0.02 0.02 0.02 0.01 0.01 0.02 0.03 0.02 0.01 0.01 0.01 0.01 0.02 0.02
0.00 0.00 0.00 0.00 0.01 0.03 0.03 0.04 0.02 0.01 0.02 0.04 0.03 0.02 0.03 0.05 0.07 0.08 0.08 0.07 0.06 0.05 0.06 0.07 0.06 0.06 0.05 0.05 0.04 0.03 0.02 0.02 0.02 0.01 0.02 0.03 0.03 0.02 0.01 0.01 0.01 0.02 0.02
0.00 0.00 0.00 0.00 0.01 0.02 0.03 0.03 0.02 0.01 0.02 0.03 0.04 0.04 0.02 0.03 0.04 0.06 0.07 0.07 0.07 0.06 0.05 0.07 0.07 0.07 0.06 0.05 0.05 0.03 0.02 0.02 0.02 0.02 0.01 0.03 0.04 0.04 0.03 0.02 0.03 0.03 0.03
0.00 0.00 0.00 0.00 0.00 0.01 0.02 0.02 0.02 0.02 0.03 0.03 0.04 0.04 0.03 0.02 0.03 0.06 0.08 0.08 0.08 0.09 0.07 0.05 0.06 0.06 0.06 0.06 0.04 0.05 0.03 0.02 0.01 0.01 0.01 0.02 0.04 0.05 0.06 0.05 0.04 0.04 0.03
0.00 0.00 0.01 0.01 0.01 0.01 0.01 0.02 0.03 0.03 0.02 0.03 0.04 0.04 0.02 0.03 0.02 0.05 0.08 0.06 0.08 0.09 0.08 0.07 0.08 0.07 0.05 0.06 0.03 0.04 0.03 0.02 0.02 0.02 0.03 0.06 0.08 0.06 0.07 0.10 0.09 0.06 0.04
0.00 0.00 0.00 0.01 0.01 0.02 0.02 0.02 0.03 0.04 0.03 0.02 0.02 0.01 0.02 0.02 0.02 0.04 0.07 0.10 0.08 0.08 0.07 0.07 0.08 0.08 0.07 0.06 0.06 0.07 0.04 0.02 0.02 0.03 0.03 0.05 0.07 0.06 0.07 0.08 0.11 0.11 0.09
0.00 0.00 0.00 0.00 0.01 0.01 0.02 0.02 0.03 0.04 0.03 0.03 0.02 0.04 0.03 0.02 0.02 0.03 0.05 0.06 0.07 0.09 0.08 0.08 0.09 0.10 0.08 0.07 0.07 0.12 0.11 0.09 0.06 0.02 0.02 0.03 0.03 0.03 0.04 0.05 0.07 0.08 0.09
0.00 0.00 0.00 0.01 0.02 0.02 0.03 0.03 0.03 0.04 0.04 0.04 0.05 0.06 0.04 0.02 0.02 0.03 0.03 0.04 0.05 0.06 0.09 0.10 0.10 0.09 0.10 0.10 0.07 0.11 0.12 0.14 0.10 0.05 0.03 0.02 0.02 0.02 0.03 0.04 0.03 0.04 0.06
0.00 0.00 0.01 0.01 0.02 0.03 0.03 0.03 0.03 0.03 0.04 0.06 0.05 0.05 0.04 0.02 0.02 0.03 0.03 0.04 0.05 0.05 0.09 0.07 0.09 0.10 0.12 0.11 0.09 0.08 0.09 0.11 0.13 0.12 0.08 0.05 0.04 0.04 0.03 0.04 0.05 0.05 0.06
0.01 0.01 0.01 0.02 0.02 0.03 0.03 0.03 0.03 0.03 0.04 0.03 0.03 0.05 0.06 0.05 0.04 0.02 0.03 0.04 0.05 0.05 0.07 0.07 0.08 0.08 0.09 0.08 0.09 0.09 0.09 0.10 0.10 0.13 0.13 0.09 0.07 0.04 0.03 0.04 0.04 0.05 0.04
0.00 0.01 0.01 0.02 0.02 0.03 0.02 0.01 0.01 0.02 0.04 0.03 0.03 0.04 0.05 0.05 0.05 0.03 0.03 0.04 0.04 0.05 0.06 0.06 0.06 0.06 0.07 0.09 0.09 0.10 0.09 0.09 0.10 0.11 0.11 0.10 0.08 0.05 0.04 0.04 0.03 0.03 0.04
MSLP
1005.83 1005.90 1006.12 1006.52 1007.05 1007.65 1008.25 1008.80 1009.25 1009.60 1009.88 1010.12 1010.37 1010.67 1011.01 1011.39 1011.77 1012.13 1012.44 1012.69 1012.89 1013.07 1013.24 1013.42 1013.62 1013.83 1014.04 1014.21 1014.34 1014.44 1014.50 1014.54 1014.60 1014.68 1014.80 1014.95 1015.12 1015.29 1015.45 1015.59 1015.72 1015.84 1015.98
1005.87 1006.05 1006.38 1006.85 1007.42 1008.03 1008.61 1009.11 1009.52 1009.84 1010.11 1010.38 1010.68 1011.04 1011.45 1011.89 1012.31 1012.68 1012.98 1013.20 1013.36 1013.49 1013.61 1013.75 1013.91 1014.07 1014.23 1014.37 1014.47 1014.53 1014.57 1014.61 1014.69 1014.80 1014.96 1015.16 1015.37 1015.58 1015.76 1015.92 1016.04 1016.16 1016.27
1005.92 1006.20 1006.62 1007.16 1007.78 1008.40 1008.97 1009.44 1009.82 1010.12 1010.39 1010.67 1011.01 1011.41 1011.85 1012.32 1012.75 1013.11 1013.39 1013.58 1013.71 1013.80 1013.90 1014.02 1014.15 1014.29 1014.42 1014.52 1014.58 1014.61 1014.62 1014.65 1014.73 1014.87 1015.07 1015.31 1015.57 1015.82 1016.04 1016.21 1016.35 1016.47 1016.58
1005.96 1006.32 1006.82 1007.43 1008.08 1008.72 1009.29 1009.75 1010.11 1010.41 1010.69 1010.99 1011.35 1011.77 1012.23 1012.69 1013.11 1013.44 1013.69 1013.85 1013.95 1014.04 1014.13 1014.25 1014.39 1014.53 1014.64 1014.71 1014.73 1014.72 1014.70 1014.70 1014.77 1014.92 1015.14 1015.42 1015.72 1016.02 1016.27 1016.48 1016.64 1016.77 1016.89
1005.97 1006.40 1006.96 1007.62 1008.30 1008.95 1009.52 1009.99 1010.36 1010.67 1010.96 1011.30 1011.68 1012.12 1012.58 1013.03 1013.42 1013.72 1013.93 1014.06 1014.16 1014.24 1014.35 1014.49 1014.65 1014.79 1014.90 1014.95 1014.93 1014.88 1014.82 1014.80 1014.85 1014.99 1015.23 1015.53 1015.86 1016.18 1016.47 1016.71 1016.89 1017.05 1017.19
1005.98 1006.45 1007.05 1007.73 1008.43 1009.09 1009.66 1010.13 1010.51 1010.84 1011.17 1011.54 1011.96 1012.42 1012.89 1013.33 1013.69 1013.96 1014.14 1014.26 1014.35 1014.45 1014.58 1014.74 1014.92 1015.08 1015.19 1015.23 1015.18 1015.09 1015.00 1014.94 1014.97 1015.10 1015.33 1015.64 1015.99 1016.33 1016.64 1016.90 1017.10 1017.28 1017.45
1006.00 1006.49 1007.09 1007.78 1008.48 1009.12 1009.68 1010.15 1010.54 1010.89 1011.26 1011.67 1012.13 1012.63 1013.12 1013.56 1013.92 1014.18 1014.34 1014.45 1014.54 1014.65 1014.80 1014.99 1015.19 1015.37 1015.48 1015.50 1015.44 1015.32 1015.19 1015.11 1015.11 1015.23 1015.46 1015.77 1016.12 1016.47 1016.78 1017.05 1017.27 1017.46 1017.65
1006.03 1006.53 1007.13 1007.80 1008.47 1009.09 1009.62 1010.06 1010.45 1010.82 1011.21 1011.66 1012.17 1012.71 1013.24 1013.70 1014.07 1014.33 1014.50 1014.60 1014.70 1014.82 1014.98 1015.19 1015.40 1015.59 1015.70 1015.72 1015.64 1015.50 1015.36 1015.26 1015.25 1015.36 1015.58 1015.89 1016.24 1016.59 1016.91 1017.17 1017.40 1017.59 1017.78
1006.09 1006.59 1007.19 1007.83 1008.46 1009.02 1009.50 1009.91 1010.26 1010.62 1011.03 1011.51 1012.06 1012.64 1013.21 1013.71 1014.11 1014.39 1014.57 1014.69 1014.80 1014.92 1015.09 1015.30 1015.52 1015.71 1015.82 1015.83 1015.75 1015.61 1015.46 1015.35 1015.34 1015.45 1015.68 1015.99 1016.34 1016.70 1017.01 1017.27 1017.49 1017.67 1017.86
1006.15 1006.66 1007.25 1007.87 1008.45 1008.96 1009.38 1009.72 1010.02 1010.35 1010.75 1011.23 1011.80 1012.42 1013.03 1013.57 1014.01 1014.32 1014.53 1014.67 1014.79 1014.92 1015.10 1015.31 1015.53 1015.72 1015.83 1015.84 1015.77 1015.63 1015.49 1015.39 1015.38 1015.50 1015.73 1016.06 1016.42 1016.78 1017.10 1017.35 1017.56 1017.73 1017.89
1006.18 1006.70 1007.30 1007.90 1008.44 1008.90 1009.25 1009.53 1009.77 1010.05 1010.41 1010.88 1011.45 1012.08 1012.71 1013.28 1013.76 1014.11 1014.35 1014.52 1014.65 1014.80 1014.99 1015.21 1015.44 1015.64 1015.76 1015.79 1015.72 1015.60 1015.47 1015.38 1015.38 1015.50 1015.75 1016.08 1016.45 1016.83 1017.16 1017.42 1017.62 1017.77 1017.92
1006.13 1006.68 1007.29 1007.89 1008.41 1008.83 1009.13 1009.35 1009.54 1009.76 1010.07 1010.50 1011.04 1011.65 1012.29 1012.88 1013.37 1013.76 1014.03 1014.23 1014.40 1014.58 1014.80 1015.04 1015.30 1015.52 1015.66 1015.72 1015.67 1015.57 1015.44 1015.35 1015.36 1015.48 1015.72 1016.05 1016.44 1016.83 1017.18 1017.46 1017.67 1017.81 1017.94
1005.97 1006.55 1007.18 1007.79 1008.32 1008.72 1009.00 1009.18 1009.32 1009.49 1009.75 1010.13 1010.62 1011.20 1011.81 1012.39 1012.89 1013.30 1013.60 1013.84 1014.06 1014.29 1014.55 1014.84 1015.14 1015.41 1015.60 1015.69 1015.68 1015.58 1015.46 1015.36 1015.34 1015.43 1015.65 1015.97 1016.36 1016.76 1017.14 1017.45 1017.68 1017.84 1017.95
1005.69 1006.29 1006.94 1007.57 1008.12 1008.53 1008.82 1008.99 1009.12 1009.25 1009.47 1009.79 1010.23 1010.75 1011.32 1011.87 1012.36 1012.77 1013.11 1013.39 1013.66 1013.95 1014.28 1014.65 1015.02 1015.35 1015.60 1015.74 1015.76 1015.68 1015.54 1015.41 1015.34 1015.38 1015.54 1015.83 1016.20 1016.61 1017.00 1017.35 1017.61 1017.80 1017.92
1005.32 1005.92 1006.58 1007.23 1007.80 1008.25 1008.56 1008.76 1008.90 1009.04 1009.22 1009.50 1009.89 1010.35 1010.86 1011.36 1011.83 1012.24 1012.59 1012.91 1013.24 1013.60 1014.01 1014.46 1014.92 1015.34 1015.67 1015.86 1015.92 1015.84 1015.68 1015.50 1015.36 1015.31 1015.40 1015.61 1015.94 1016.33 1016.74 1017.12 1017.43 1017.66 1017.81
1004.92 1005.50 1006.15 1006.80 1007.38 1007.87 1008.23 1008.48 1008.66 1008.82 1009.01 1009.26 1009.60 1010.00 1010.45 1010.90 1011.33 1011.72 1012.08 1012.44 1012.82 1013.25 1013.75 1014.28 1014.84 1015.34 1015.75 1016.01 1016.11 1016.04 1015.86 1015.61 1015.38 1015.23 1015.20 1015.32 1015.57 1015.92 1016.33 1016.73 1017.09 1017.37 1017.57
1004.57 1005.10 1005.70 1006.33 1006.93 1007.44 1007.86 1008.17 1008.41 1008.60 1008.81 1009.05 1009.35 1009.71 1010.09 1010.49 1010.88 1011.26 1011.62 1012.00 1012.43 1012.91 1013.47 1014.09 1014.72 1015.31 1015.79 1016.12 1016.26 1016.21 1016.00 1015.70 1015.38 1015.12 1014.97 1014.97 1015.12 1015.41 1015.78 1016.19 1016.57 1016.90 1017.15
1004.31 1004.78 1005.32 1005.91 1006.49 1007.03 1007.48 1007.85 1008.14 1008.39 1008.62 1008.87 1009.15 1009.46 1009.80 1010.15 1010.51 1010.86 1011.22 1011.61 1012.06 1012.58 1013.18 1013.85 1014.54 1015.19 1015.73 1016.12 1016.30 1016.28 1016.07 1015.74 1015.35 1014.98 1014.71 1014.59 1014.63 1014.82 1015.13 1015.52 1015.91 1016.27 1016.57
1004.16 1004.57 1005.06 1005.59 1006.15 1006.68 1007.16 1007.56 1007.91 1008.19 1008.45 1008.70 1008.96 1009.24 1009.55 1009.87 1010.19 1010.53 1010.88 1011.28 1011.73 1012.27 1012.88 1013.56 1014.27 1014.96 1015.55 1015.98 1016.21 1016.23 1016.05 1015.71 1015.28 1014.84 1014.47 1014.23 1014.15 1014.24 1014.46 1014.79 1015.16 1015.52 1015.85
1004.09 1004.46 1004.90 1005.39 1005.91 1006.43 1006.91 1007.34 1007.71 1008.02 1008.29 1008.54 1008.79 1009.05 1009.33 1009.63 1009.94 1010.27 1010.62 1011.01 1011.46 1011.98 1012.58 1013.25 1013.95 1014.63 1015.24 1015.70 1015.99 1016.06 1015.93 1015.62 1015.19 1014.72 1014.29 1013.96 1013.76 1013.73 1013.85 1014.08 1014.40 1014.74 1015.07
1004.01 1004.39 1004.81 1005.28 1005.77 1006.28 1006.76 1007.20 1007.57 1007.89 1008.16 1008.40 1008.63 1008.88 1009.14 1009.43 1009.74 1010.07 1010.43 1010.82 1011.26 1011.76 1012.32 1012.93 1013.59 1014.24 1014.84 1015.33 1015.66 1015.80 1015.74 1015.50 1015.12 1014.66 1014.20 1013.80 1013.51 1013.36 1013.36 1013.48 1013.71 1014.00 1014.31
1003.80 1004.24 1004.69 1005.17 1005.67 1006.18 1006.66 1007.10 1007.48 1007.79 1008.04 1008.27 1008.48 1008.70 1008.95 1009.24 1009.56 1009.91 1010.29 1010.69 1011.12 1011.59 1012.10 1012.66 1013.25 1013.85 1014.42 1014.91 1015.28 1015.48 1015.51 1015.36 1015.07 1014.66 1014.21 1013.78 1013.41 1013.16 1013.04 1013.04 1013.17 1013.38 1013.63
1003.37 1003.90 1004.43 1004.97 1005.52 1006.06 1006.57 1007.02 1007.40 1007.70 1007.94 1008.13 1008.32 1008.52 1008.76 1009.05 1009.39 1009.77 1010.18 1010.60 1011.03 1011.48 1011.94 1012.44 1012.95 1013.48 1014.00 1014.48 1014.87 1015.14 1015.26 1015.22 1015.02 1014.69 1014.29 1013.86 1013.45 1013.11 1012.88 1012.77 1012.78 1012.89 1013.08
1002.66 1003.32 1003.96 1004.59 1005.22 1005.84 1006.40 1006.89 1007.29 1007.59 1007.82 1007.99 1008.14 1008.32 1008.55 1008.84 1009.20 1009.61 1010.06 1010.51 1010.96 1011.39 1011.82 1012.25 1012.69 1013.15 1013.61 1014.05 1014.45 1014.77 1014.97 1015.03 1014.94 1014.72 1014.38 1013.97 1013.55 1013.16 1012.84 1012.63 1012.53 1012.54 1012.66
1001.71 1002.48 1003.24 1003.99 1004.74 1005.45 1006.10 1006.66 1007.11 1007.44 1007.67 1007.82 1007.95 1008.10 1008.31 1008.60 1008.97 1009.40 1009.88 1010.37 1010.84 1011.28 1011.69 1012.07 1012.45 1012.83 1013.23 1013.63 1014.01 1014.35 1014.61 1014.76 1014.78 1014.65 1014.40 1014.05 1013.64 1013.23 1012.85 1012.55 1012.36 1012.28 1012.33
1000.59 1001.44 1002.30 1003.17 1004.04 1004.88 1005.64 1006.30 1006.83 1007.21 1007.46 1007.61 1007.73 1007.85 1008.03 1008.30 1008.67 1009.12 1009.62 1010.14 1010.64 1011.09 1011.49 1011.84 1012.16 1012.48 1012.81 1013.16 1013.52 1013.86 1014.16 1014.37 1014.48 1014.44 1014.28 1014.00 1013.63 1013.22 1012.82 1012.47 1012.21 1012.06 1012.03
Thickness
5783 5783 5781 5780 5779 5777 5776 5775 5774 5773 5771 5770 5769 5768 5767 5766 5766 5766 5765 5764 5763 5762 5761 5760 5760 5760 5759 5759 5758 5758 5758 5757 5757 5757 5756 5755 5754 5753 5752 5751 5751 5750 5748
5786 5782 5780 5779 5777 5776 5774 5774 5772 5771 5769 5768 5767 5766 5765 5764 5764 5763 5762 5762 5762 5761 5760 5759 5759 5758 5758 5758 5757 5757 5757 5757 5756 5756 5755 5753 5752 5751 5750 5750 5750 5749 5748
5786 5782 5779 5777 5776 5774 5773 5771 5770 5769 5768 5767 5765 5765 5764 5763 5762 5761 5761 5761 5760 5759 5759 5759 5758 5757 5757 5757 5756 5756 5756 5756 5755 5755 5754 5753 5752 5751 5750 5749 5749 5748 5747
5787 5782 5779 5776 5774 5773 5771 5769 5768 5767 5766 5765 5764 5764 5763 5762 5761 5760 5760 5759 5759 5758 5758 5757 5757 5757 5757 5756 5756 5756 5756 5756 5756 5755 5755 5754 5752 5750 5749 5749 5748 5747 5746
5786 5781 5776 5774 5773 5771 5769 5768 5767 5765 5765 5764 5763 5762 5761 5761 5760 5760 5759 5758 5758 5758 5757 5757 5757 5756 5756 5756 5756 5756 5755 5755 5756 5756 5756 5754 5752 5750 5749 5748 5747 5747 5746
5785 5780 5775 5773 5771 5769 5768 5767 5766 5765 5763 5762 5761 5761 5760 5760 5759 5759 5758 5758 5757 5757 5757 5756 5756 5756 5756 5755 5755 5755 5755 5755 5756 5757 5757 5754 5751 5750 5749 5748 5747 5746 5745
5786 5780 5774 5772 5770 5768 5767 5765 5764 5763 5762 5761 5760 5760 5759 5759 5758 5758 5758 5757 5757 5756 5756 5756 5756 5755 5755 5755 5755 5755 5755 5755 5757 5758 5757 5755 5752 5750 5749 5748 5747 5746 5745
5788 5781 5774 5771 5769 5767 5766 5765 5763 5762 5761 5760 5760 5759 5759 5759 5758 5758 5757 5757 5756 5756 5756 5756 5755 5755 5755 5755 5755 5755 5755 5755 5758 5759 5757 5755 5752 5751 5749 5748 5747 5746 5745
5790 5783 5776 5772 5769 5767 5766 5764 5763 5762 5761 5760 5760 5759 5759 5758 5758 5757 5757 5757 5757 5756 5756 5756 5756 5755 5755 5755 5755 5755 5756 5757 5758 5758 5757 5754 5752 5750 5749 5748 5747 5746 5745
5791 5786 5780 5776 5771 5768 5766 5765 5763 5762 5761 5760 5760 5759 5759 5759 5758 5758 5757 5757 5757 5757 5757 5757 5757 5756 5755 5755 5756 5756 5757 5757 5758 5758 5757 5754 5752 5751 5749 5748 5747 5746 5745
5790 5787 5784 5779 5774 5772 5769 5766 5764 5762 5761 5760 5760 5760 5760 5759 5759 5758 5758 5758 5758 5758 5758 5758 5758 5757 5756 5756 5756 5757 5757 5757 5759 5759 5758 5755 5753 5751 5750 5749 5748 5746 5746
5788 5788 5786 5783 5779 5776 5774 5768 5766 5765 5763 5762 5762 5762 5761 5761 5761 5761 5760 5759 5759 5759 5758 5758 5758 5758 5757 5758 5758 5758 5758 5760 5760 5760 5758 5756 5754 5752 5751 5750 5748 5747 5746
5792 5790 5789 5786 5782 5779 5775 5772 5770 5769 5766 5765 5765 5764 5763 5763 5763 5762 5760 5760 5759 5760 5760 5760 5760 5760 5760 5761 5761 5761 5761 5762 5763 5761 5759 5757 5755 5753 5752 5750 5749 5748 5747
5796 5793 5791 5788 5783 5780 5778 5776 5773 5772 5770 5769 5767 5766 5765 5765 5764 5764 5763 5762 5762 5762 5762 5762 5762 5762 5763 5763 5764 5764 5764 5764 5764 5762 5760 5758 5756 5755 5753 5751 5750 5749 5747
5799 5796 5794 5790 5785 5781 5779 5777 5776 5774 5773 5772 5769 5767 5767 5766 5765 5765 5764 5764 5764 5764 5763 5763 5763 5763 5764 5764 5765 5765 5765 5765 5765 5763 5761 5759 5758 5756 5755 5753 5752 5750 5748
5803 5800 5797 5792 5787 5783 5780 5778 5778 5777 5775 5774 5772 5770 5768 5767 5766 5765 5764 5764 5764 5765 5765 5764 5764 5764 5764 5764 5765 5765 5765 5766 5766 5765 5763 5761 5759 5758 5757 5755 5754 5752 5750
5807 5804 5799 5795 5791 5786 5783 5781 5781 5780 5778 5777 5775 5773 5770 5769 5767 5766 5765 5765 5765 5765 5765 5765 5765 5765 5765 5765 5765 5766 5766 5766 5766 5766 5765 5763 5761 5760 5759 5758 5756 5754 5752
5812 5807 5803 5802 5795 5789 5786 5785 5784 5783 5781 5779 5777 5775 5773 5771 5769 5767 5766 5766 5766 5766 5766 5766 5765 5764 5764 5764 5765 5766 5767 5767 5767 5767 5766 5765 5764 5762 5760 5759 5758 5756 5754
5816 5811 5806 5804 5798 5793 5790 5788 5787 5785 5783 5782 5780 5777 5775 5773 5772 5770 5769 5768 5767 5767 5767 5767 5766 5765 5763 5764 5765 5767 5768 5768 5768 5768 5768 5767 5766 5765 5762 5761 5760 5758 5756
5821 5815 5809 5806 5802 5798 5794 5790 5789 5787 5786 5784 5782 5779 5777 5776 5774 5773 5771 5770 5769 5767 5767 5767 5766 5766 5765 5765 5766 5767 5768 5769 5770 5769 5769 5768 5768 5767 5765 5764 5762 5760 5757
5823 5817 5812 5808 5804 5800 5795 5791 5787 5785 5786 5785 5784 5782 5780 5778 5777 5775 5773 5772 5770 5768 5768 5768 5766 5764 5764 5766 5763 5761 5766 5771 5771 5770 5769 5769 5769 5768 5767 5766 5763 5761 5759
5826 5820 5815 5811 5807 5803 5799 5796 5793 5790 5789 5788 5788 5785 5782 5780 5778 5778 5774 5773 5772 5770 5769 5768 5766 5763 5763 5766 5760 5754 5752 5757 5765 5771 5770 5768 5768 5768 5767 5766 5764 5762 5760
5829 5824 5820 5814 5810 5806 5803 5799 5796 5793 5790 5788 5786 5785 5784 5782 5781 5779 5777 5775 5774 5772 5769 5768 5766 5763 5760 5764 5764 5756 5748 5746 5754 5763 5767 5767 5767 5765 5765 5765 5764 5762 5760
5835 5830 5824 5818 5813 5809 5806 5801 5795 5790 5786 5787 5788 5787 5786 5784 5782 5781 5778 5776 5775 5773 5770 5769 5768 5766 5762 5759 5762 5763 5761 5758 5750 5749 5757 5763 5764 5764 5763 5763 5762 5761 5759
5841 5835 5828 5821 5816 5812 5808 5804 5799 5795 5793 5793 5791 5789 5787 5786 5784 5782 5780 5777 5775 5773 5771 5770 5769 5766 5764 5761 5760 5761 5760 5759 5757 5748 5746 5753 5757 5760 5762 5761 5760 5759 5758
5845 5838 5831 5822 5816 5813 5809 5806 5801 5798 5795 5792 5790 5788 5786 5786 5784 5783 5781 5778 5775 5773 5772 5770 5769 5767 5765 5764 5762 5761 5759 5756 5754 5752 5748 5748 5749 5755 5759 5759 5759 5758 5756